946  
ASUS41 KALY 180010  
RWRALY  
 
NEW YORK STATE HOURLY WEATHER ROUNDUP  
NATIONAL WEATHER SERVICE ALBANY NY  
800 PM EDT SUN JUN 17 2018  
 
NOTE: "FAIR" INDICATES FEW OR NO CLOUDS BELOW 12,000 FEET WITH NO  
SIGNIFICANT WEATHER AND/OR NO S TO VISIBILITY
.  
 
NYZ032-033-038>043-046>054-057>066-NYZ062>081-082-084-180100-  
EAST  
 
 
CITY SKY/WX TMP DP RH WIND PRES REMARKS
 
ALBANY MOCLDY 85 53 33 SE5 30.00F  
GLENS FALLS FAIR 78 57 48 S5 29.99F  
POUGHKEEPSIE FAIR 84 59 42 SE3 30.01F  
NEWBURGH CLEAR 82 61 47 S6 30.05S  
MONTGOMERY FAIR 82 63 52 SW3 30.02F  
WHITE PLAINS FAIR 77 51 40 S6 30.06F  
ISLIP MOCLDY 73 59 61 SW9 30.08S  
NEW YORK CITY MOCLDY 82 53 36 S12 30.05S  
CENTRAL PARK FAIR 80 54 40 CALM 30.08S  

 
 
NYZ005>009-017-018-044>046-055-056-180100-  
CENTRAL  
 
 
CITY SKY/WX TMP DP RH WIND PRES REMARKS
 
FULTON FAIR 82 64 54 CALM 29.97F  
SYRACUSE FAIR 81 66 60 E6 29.97F  
ROME FAIR 78 66 66 NE5 30.00F  
ELMIRA FAIR 86 67 52 S5 30.01F  
BINGHAMTON FAIR 80 61 52 SW3 30.07F  
MONTICELLO FAIR 80 62 54 S6 30.09F  

 
 
NYZ026>034-041>043-087-180100-  
NORTH  
 
 
CITY SKY/WX TMP DP RH WIND PRES REMARKS
 
WATERTOWN FAIR 77 65 66 W5 29.96S  
FORT DRUM NOT AVBL  
OGDENSBURG FAIR 78 63 59 SW6 29.95S  
MASSENA FAIR 81 62 52 SW8 29.95S  
SARANAC LAKE FAIR 75 61 61 SW5 30.01F  
PLATTSBURGH FAIR 80 51 36 S7 29.93F  

 
 
NYZ001>004-010>016-019>021-085-180100-  
WEST  
 
 
CITY SKY/WX TMP DP RH WIND PRES REMARKS
 
NIAGARA FALLS FAIR 83 61 47 S12 29.97F  
BUFFALO MOCLDY 80 60 50 SW10 29.99F  
DUNKIRK FAIR 80 65 59 S3 30.00F  
JAMESTOWN FAIR 81 66 60 SW5 30.07F  
WELLSVILLE FAIR 81 64 56 SW5 30.10F  
ROCHESTER MOCLDY 87 64 46 CALM 29.98F  
PENN YAN FAIR 83 65 54 SW5 30.01F  

 
 
KEY  
WCI = WIND CHILL INDEX  
VSB = VISIBILITY  
HX = HEAT INDEX  

 
 
 
CLICK HERE TO GO TO PREVIOUS BULLETINS.

The Nexlab NY Page
The Nexlab VT Page
The Nexlab MA Page
The Nexlab CT Page Main Text Page